User: anonymous   Login
Location: Feydey
(46.3431°N, 7.0106°E)
Time: 10:24:13
(UTC+00:00)
Language:

Cosmos 1486 Rocket - Orbit

View from above orbital plane
View from above orbital plane
View from above satellite
View from above satellite

Ground track
Ground track

The orbit data is extracted from the following two-line orbital elements,

1 14241U 83079B   21267.71970165 -.00000031  00000-0 -15163-5 0  9990
2 14241  74.0571 263.7757 0018367 305.8932  54.0515 14.36231731996555
Epoch (UTC): 24 September 2021 17:16:22
Eccentricity: 0.0018367
inclination: 74.0571°
perigee height: 758 km
apogee height: 784 km
right ascension of ascending node: 263.7757°
argument of perigee: 305.8932°
revolutions per day: 14.36231731
mean anomaly at epoch: 54.0515°
orbit number at epoch: 99655

The dashed part of the orbit path shows where the satellite is in the earth's shadow,  

DLR